SCP
0 0 0 0 0 0 0 0 0 0 0 0 0 0 0 0 0 0 0 0 0 0 0 0 0 0 0 0 0 0 0 0 0 0 0 0 0 0 0 0 0 0 0
0 0 0 0 0 0 0 0 0 0 0 0 0 0 0 0 0 0 0 0 0 0 0 0 0 0 0 0 0 0 0 0 0 0 0 0 0 0 0 0 0 0 0
0 0 0 0 0 0 0 0 0 0 0 0 0 0 0 0 0 0 0 0 0 0 0 0 0 0 0 0 0 0 0 0 0 0 0 0 0 0 0 0 0 0 0
0 0 0 0 0 0 0 0 0 0 0 0 0 0 0 0 0 0 0 0 0 0 0 0 0 0 0 0 0 0 0 0 0 0 0 0 0 0 0 0 0 0 0
0 0 0 0 0 0 0 0 0 0 0 0 0 0 0 0 0 0 0 0 0 0 0 0 0 0 0 0 0 0 0 0 0 0 0 0 0 0 0 0 0 0 0
0 0 0 0 0 0 0 0 0 0 0 0 0 0 0 0 0 0 0 0 0 0 0 0 0 0 0 0 0 0 0 0 0 0 0 0 0 0 0 0 0 0 0
0 0 0 0 0 0 0 0 0 0 0 0 0 0 0 0 0 0 0 0 0 0 0 0 0 0 0 0 0 0 0 0 0 0 0 0 0 0 0 0 0 0 0
0 0 0 0 0 0 0 0 0 0 0 0 0 0 0 0 0 0 0 0 0 0 0 0 0 0 0 0 0 0 0 0 0 0 0 0 0 0 0 0 0 0 0
0 0 0 0 0 0 0 0 0 0 0 0 0 0 0 0 0 0 0 0 0 0 0 0 0 0 0 0 0 0 0 0 0 0 0 0 0 0 0 0 0 0 0
0 0 0 0 0 0 0 0 0 0 0 0 0 0 0 0 0 0 0 0 0 0 0 0 0 0 0 0 0 0 0 0 0 0 0 0 0 0 0 0 0 0 0
0 0 0 0 0 0 0 0 0 0 0 0 0 0 0 0 0 0 0 0 0 0 0 0 0 0 0 0 0 0 0 0 0 0 0 0 0 0 0 0 0 0 0
0 0 0 0 0 0 0 0 0 0 0 0 0 0 0 0 0 0 0 0 0 0 0 0 0 0 0 0 0 0 0 0 0 0 0 0 0 0 0 0 0 0 0
0 0 0 0 0 0 0 0 0 0 0 0 0 0 0 0 0 0 0 0 0 0 0 0 0 0 0 0 0 0 0 0 0 0 0 0 0 0 0 0 0 0 0
0 0 0 0 0 0 0 0 0 0 0 0 0 0 0 0 0 0 0 0 0 0 0 0 0 0 0 0 0 0 0 0 0 0 0 0 0 0 0 0 0 0 0
0 0 0 0 0 0 0 0 0 0 0 0 0 0 0 0 0 0 0 0 0 0 0 0 0 0 0 0 0 0 0 0 0 0 0 0 0 0 0 0 0 0 0
0 0 0 0 0 0 0 0 0 0 0 0 0 0 0 0 0 0 0 0 0 0 0 0 0 0 0 0 0 0 0 0 0 0 0 0 0 0 0 0 0 0 0
0 0 0 0 0 0 0 0 0 0 0 0 0 0 0 0 0 0 0 0 0 0 0 0 0 0 0 0 0 0 0 0 0 0 0 0 0 0 0 0 0 0 0
0 0 0 0 0 0 0 0 0 0 0 0 0 0 0 0 0 0 0 0 0 0 0 0 0 0 0 0 0 0 0 0 0 0 0 0 0 0 0 0 0 0 0
0 0 0 0 0 0 0 0 0 0 0 0 0 0 0 0 0 0 0 0 0 0 0 0 0 0 0 0 0 0 0 0 0 0 0 0 0 0 0 0 0 0 0
0 0 0 0 0 0 0 0 0 0 0 0 0 0 0 0 0 0 0 0 0 0 0 0 0 0 0 0 0 0 0 0 0 0 0 0 0 0 0 0 0 0 0
0 0 0 0 0 0 0 0 0 0 0 0 0 0 0 0 0 0 0 0 0 0 0 0 0 0 0 0 0 0 0 0 0 0 0 0 0 0 0 0 0 0 0
0 0 0 0 0 0 0 0 0 0 0 0 0 0 0 0 0 0 0 0 0 0 0 0 0 0 0 0 0 0 0 0 0 0 0 0 0 0 0 0 0 0 0
0 0 0 0 0 0 0 0 0 0 0 0 0 0 0 0 0 0 0 0 0 0 0 0 0 0 0 0 0 0 0 0 0 0 0 0 0 0 0 0 0 0 0
0 0 0 0 0 0 0 0 0 0 0 0 0 0 0 0 0 0 0 0 0 0 0 0 0 0 0 0 0 0 0 0 0 0 0 0 0 0 0 0 0 0 0
0 0 0 0 0 0 0 0 0 0 0 0 0 0 0 0 0 0 0 0 0 0 0 0 0 0 0 0 0 0 0 0 0 0 0 0 0 0 0 0 0 0 0
0 0 0 0 0 0 0 0 0 0 0 0 0 0 0 0 0 0 0 0 0 0 0 0 0 0 0 0 0 0 0 0 0 0 0 0 0 0 0 0 0 0 0
Wind_Speed_500mb
77 80 82 84 81 77 75 69 66 66 64 65 64 62 61 58 54 62 69 67 68 66 59 55 53 54 52 50 48 43 48 50 50 55 48 41 35 27 26 23 19 15 13
74 79 81 78 73 71 71 71 67 66 66 68 64 63 61 60 60 61 65 66 71 73 61 63 57 57 56 53 49 49 53 48 50 54 49 45 40 34 31 27 23 20 18
51 57 64 68 69 68 68 69 67 62 60 62 63 64 65 69 69 72 68 64 69 75 60 65 58 59 59 56 56 56 50 48 50 51 52 46 42 40 37 31 27 25 21
31 36 42 46 49 52 54 56 56 54 54 56 61 65 68 70 66 65 68 66 76 68 60 61 60 62 61 60 57 53 50 50 51 51 52 48 46 43 40 34 31 27 22
28 31 32 35 38 42 44 46 48 50 52 55 59 64 63 64 59 63 58 64 66 65 59 62 59 60 59 58 55 52 53 53 53 54 54 52 50 47 42 37 34 28 23
24 23 27 32 34 36 37 39 45 48 51 55 55 55 53 55 58 50 55 64 58 57 60 59 62 60 61 58 55 53 52 51 53 54 54 52 48 46 40 37 34 29 23
24 26 30 33 34 37 38 40 42 43 43 42 41 44 45 39 41 49 49 53 55 58 59 58 63 63 60 59 58 58 57 54 54 50 50 48 48 43 40 37 33 28 25
25 28 32 34 34 36 37 36 36 35 34 33 30 29 35 39 46 48 47 49 54 60 62 62 62 64 61 61 62 61 59 58 58 55 51 48 46 41 42 38 34 30 24
30 31 32 34 34 34 34 31 30 30 31 32 33 37 40 41 45 45 52 58 59 60 61 61 62 62 62 60 61 60 61 60 58 56 54 50 45 43 45 39 36 31 25
39 36 34 34 35 35 34 34 35 35 32 33 34 38 41 44 48 50 52 54 56 58 59 62 62 63 61 62 61 61 63 59 58 58 57 50 40 48 50 44 40 33 29
30 31 31 31 30 30 31 33 34 35 34 35 37 41 43 46 49 49 51 52 52 54 59 61 62 62 65 66 61 60 57 54 57 58 54 47 39 55 57 49 44 39 30
12 11 11 11 14 18 21 25 29 33 35 36 38 41 43 45 46 49 47 48 50 52 54 54 56 60 65 66 64 58 59 58 60 60 60 49 40 61 62 54 48 43 31
9 7 5 3 2 4 8 13 19 25 28 31 35 37 37 39 41 41 42 45 47 50 51 53 54 56 60 63 64 58 63 63 66 70 66 52 51 64 63 58 55 44 43
16 13 12 10 9 8 7 7 9 17 23 24 29 35 35 35 36 35 39 45 49 51 52 58 58 55 58 61 63 63 69 69 72 72 70 53 55 70 69 63 62 50 48
15 14 14 15 13 13 13 14 14 14 19 23 24 29 33 35 29 33 36 39 43 46 50 52 58 64 69 74 73 73 73 71 75 77 74 69 62 75 68 74 70 61 53
14 14 16 15 14 15 16 18 18 18 19 23 26 30 30 31 30 32 35 36 36 40 51 58 64 64 73 77 76 77 78 79 82 83 76 74 70 75 76 81 76 70 56
15 17 17 17 17 17 17 18 17 18 20 20 20 22 26 33 30 32 35 35 33 35 50 54 62 70 75 79 80 82 84 83 85 89 85 80 74 75 83 85 80 75 62
17 17 18 21 23 24 24 24 25 25 25 20 20 22 23 26 30 28 29 30 36 41 57 61 62 66 74 80 84 85 86 89 89 91 95 90 81 84 93 86 87 82 71
18 18 21 24 24 24 25 26 26 27 28 29 30 27 25 25 27 27 25 32 41 48 56 66 71 71 74 75 78 81 83 87 91 96 103 100 93 92 94 86 90 86 80
15 17 19 21 23 25 27 29 30 31 32 33 35 36 37 37 34 28 26 30 37 46 56 68 78 81 80 78 78 79 84 87 90 94 95 103 105 95 97 94 92 94 91
16 19 21 24 26 29 30 33 34 35 36 36 36 37 39 40 41 40 42 42 44 46 47 50 58 69 82 85 85 86 86 86 83 86 91 102 106 101 97 99 94 101 93
19 22 24 26 29 31 32 34 36 37 39 40 41 41 43 44 44 44 44 45 45 48 51 55 59 63 67 71 70 73 79 81 81 83 81 81 91 98 99 98 100 102 100
21 25 30 34 37 40 41 43 43 45 46 48 49 51 50 51 50 50 50 51 52 53 51 49 56 54 50 67 76 72 72 77 77 78 87 84 82 83 85 91 101 106 104
32 38 41 44 46 48 48 49 52 53 54 55 55 55 55 55 56 57 56 56 57 56 55 59 67 70 73 75 71 64 62 68 77 80 80 80 80 81 83 86 89 98 103
40 43 46 47 48 50 50 51 51 52 52 53 54 55 56 56 56 57 58 59 59 60 60 59 59 61 62 61 63 66 67 64 64 64 68 72 75 79 79 83 86 91 93
42 44 45 46 46 46 48 49 50 50 51 51 51 50 51 53 54 56 57 58 59 61 61 62 63 64 69 71 70 69 71 74 76 75 74 76 76 77 79 80 81 84 85
Wind_Direction_500mb
235 237 239 240 242 246 247 244 240 242 243 242 243 245 247 246 247 245 245 243 245 245 256 255 252 252 251 250 248 253 240 234 231 237 240 238 239 235 229 229 226 236 257
234 235 237 240 240 241 243 242 242 240 238 241 244 245 247 246 250 248 252 246 244 242 252 252 252 249 249 249 245 245 239 237 232 234 235 233 234 233 228 227 228 240 251
226 229 232 235 239 240 241 244 247 243 239 239 240 241 243 244 248 250 247 248 248 245 246 254 255 249 247 247 247 240 240 232 231 231 234 232 230 228 225 225 226 236 249
215 218 224 229 233 236 239 242 247 249 248 244 243 244 245 248 246 248 250 243 245 240 246 253 248 248 250 251 242 243 236 232 229 228 231 231 229 224 225 226 227 234 243
207 213 218 225 231 237 242 247 252 254 255 252 249 248 246 246 245 241 245 237 236 239 246 244 237 244 250 247 244 238 233 229 230 229 228 227 225 221 221 223 228 234 241
224 226 230 236 239 245 247 248 249 249 250 251 249 248 246 246 247 244 237 240 237 247 249 251 247 247 242 245 241 233 231 236 234 231 227 228 225 222 219 224 230 235 241
233 235 238 238 237 238 239 241 243 246 249 250 251 253 252 252 246 248 247 238 245 250 252 255 252 251 249 245 236 230 230 230 229 233 233 229 223 222 224 228 229 235 244
241 245 243 244 245 245 246 249 253 257 259 261 263 260 255 258 251 249 253 251 255 253 255 255 257 258 254 244 234 232 231 231 230 229 225 221 222 223 230 228 230 234 242
245 245 244 246 251 256 260 263 263 264 263 261 256 246 245 244 248 254 254 253 256 257 256 254 256 256 250 243 237 235 233 232 229 227 225 224 224 235 235 232 234 237 243
246 253 258 260 259 257 256 254 254 255 254 251 251 252 253 255 253 254 256 259 260 261 262 256 254 251 248 243 240 238 236 235 234 230 226 223 231 249 240 234 234 236 244
251 256 259 262 263 263 261 259 257 255 251 249 253 256 259 260 261 262 265 266 265 264 262 258 255 251 245 243 242 241 240 238 235 229 226 229 244 253 239 234 234 238 242
238 248 259 266 269 267 264 262 259 258 258 256 254 254 256 260 265 266 267 267 267 266 263 259 254 251 249 247 246 241 237 233 231 230 230 233 252 256 241 236 236 239 249
134 131 133 139 182 268 275 269 263 261 260 262 262 263 264 264 264 266 269 268 265 263 260 256 252 252 253 250 249 245 242 238 235 233 231 241 270 254 244 240 240 237 252
110 108 98 84 63 42 18 357 334 312 299 288 282 280 274 268 270 273 274 272 271 267 262 255 251 250 252 253 248 247 246 243 240 240 236 245 256 250 244 248 244 238 248
93 86 73 57 45 37 17 6 352 326 307 296 288 279 282 282 281 271 270 272 274 274 270 263 255 250 248 248 245 245 248 245 242 240 237 246 248 248 246 253 243 242 244
72 61 49 46 31 23 15 1 354 348 339 325 317 307 299 289 284 273 271 271 267 262 260 258 256 252 249 251 250 252 253 252 249 241 239 247 249 247 251 250 242 243 243
56 49 39 35 29 22 19 12 13 4 354 342 327 309 306 303 294 287 283 282 276 266 262 262 259 257 256 256 255 255 256 259 255 244 241 248 253 248 248 250 245 244 241
40 30 24 18 13 6 3 359 352 346 344 342 330 324 312 301 297 290 284 282 270 257 263 267 267 267 265 263 262 260 262 261 257 256 250 257 253 254 251 248 245 244 241
58 45 33 22 13 7 3 357 351 347 342 336 330 328 319 309 300 293 285 274 273 274 271 273 277 279 277 276 274 273 270 265 261 261 256 256 256 264 256 248 247 245 246
46 30 13 5 355 348 344 342 341 338 335 332 330 327 323 320 316 308 298 290 281 277 277 277 279 283 287 288 288 285 280 276 272 264 258 256 263 260 261 249 245 243 250
7 355 350 344 340 338 338 335 334 330 326 323 322 320 317 313 311 306 304 301 296 292 288 285 286 285 285 286 287 287 288 286 285 281 276 266 264 266 269 254 244 244 250
350 345 340 336 333 329 325 323 321 320 319 316 315 313 311 309 306 301 294 287 286 291 294 293 291 291 290 290 290 289 289 288 290 288 287 285 278 272 270 261 252 249 250
335 330 327 325 323 321 320 318 316 314 311 310 309 308 307 304 302 300 297 293 288 281 274 275 276 276 283 287 288 291 290 288 290 293 289 285 283 281 276 269 261 250 248
320 318 318 316 314 312 311 309 309 309 309 308 308 307 307 306 305 303 301 297 293 289 284 276 273 273 271 270 273 277 283 287 286 286 287 287 284 284 279 272 266 259 252
312 312 312 312 311 311 311 310 310 310 310 309 309 309 308 308 306 305 303 301 297 292 288 285 284 283 282 279 275 275 275 275 275 275 277 278 277 277 276 274 268 261 251
308 308 308 308 308 307 307 306 307 308 308 308 308 310 311 311 311 310 309 306 303 301 298 295 292 289 287 286 285 282 278 277 277 275 274 274 274 272 270 268 265 260 254
Wind_Speed_850mb
77 80 82 84 81 77 75 69 66 66 64 65 64 62 61 58 54 62 69 67 68 66 59 55 53 54 52 50 48 43 48 50 50 55 48 41 35 27 26 23 19 15 13
74 79 81 78 73 71 71 71 67 66 66 68 64 63 61 60 60 61 65 66 71 73 61 63 57 57 56 53 49 49 53 48 50 54 49 45 40 34 31 27 23 20 18
51 57 64 68 69 68 68 69 67 62 60 62 63 64 65 69 69 72 68 64 69 75 60 65 58 59 59 56 56 56 50 48 50 51 52 46 42 40 37 31 27 25 21
31 36 42 46 49 52 54 56 56 54 54 56 61 65 68 70 66 65 68 66 76 68 60 61 60 62 61 60 57 53 50 50 51 51 52 48 46 43 40 34 31 27 22
28 31 32 35 38 42 44 46 48 50 52 55 59 64 63 64 59 63 58 64 66 65 59 62 59 60 59 58 55 52 53 53 53 54 54 52 50 47 42 37 34 28 23
24 23 27 32 34 36 37 39 45 48 51 55 55 55 53 55 58 50 55 64 58 57 60 59 62 60 61 58 55 53 52 51 53 54 54 52 48 46 40 37 34 29 23
24 26 30 33 34 37 38 40 42 43 43 42 41 44 45 39 41 49 49 53 55 58 59 58 63 63 60 59 58 58 57 54 54 50 50 48 48 43 40 37 33 28 25
25 28 32 34 34 36 37 36 36 35 34 33 30 29 35 39 46 48 47 49 54 60 62 62 62 64 61 61 62 61 59 58 58 55 51 48 46 41 42 38 34 30 24
30 31 32 34 34 34 34 31 30 30 31 32 33 37 40 41 45 45 52 58 59 60 61 61 62 62 62 60 61 60 61 60 58 56 54 50 45 43 45 39 36 31 25
39 36 34 34 35 35 34 34 35 35 32 33 34 38 41 44 48 50 52 54 56 58 59 62 62 63 61 62 61 61 63 59 58 58 57 50 40 48 50 44 40 33 29
30 31 31 31 30 30 31 33 34 35 34 35 37 41 43 46 49 49 51 52 52 54 59 61 62 62 65 66 61 60 57 54 57 58 54 47 39 55 57 49 44 39 30
12 11 11 11 14 18 21 25 29 33 35 36 38 41 43 45 46 49 47 48 50 52 54 54 56 60 65 66 64 58 59 58 60 60 60 49 40 61 62 54 48 43 31
9 7 5 3 2 4 8 13 19 25 28 31 35 37 37 39 41 41 42 45 47 50 51 53 54 56 60 63 64 58 63 63 66 70 66 52 51 64 63 58 55 44 43
16 13 12 10 9 8 7 7 9 17 23 24 29 35 35 35 36 35 39 45 49 51 52 58 58 55 58 61 63 63 69 69 72 72 70 53 55 70 69 63 62 50 48
15 14 14 15 13 13 13 14 14 14 19 23 24 29 33 35 29 33 36 39 43 46 50 52 58 64 69 74 73 73 73 71 75 77 74 69 62 75 68 74 70 61 53
14 14 16 15 14 15 16 18 18 18 19 23 26 30 30 31 30 32 35 36 36 40 51 58 64 64 73 77 76 77 78 79 82 83 76 74 70 75 76 81 76 70 56
15 17 17 17 17 17 17 18 17 18 20 20 20 22 26 33 30 32 35 35 33 35 50 54 62 70 75 79 80 82 84 83 85 89 85 80 74 75 83 85 80 75 62
17 17 18 21 23 24 24 24 25 25 25 20 20 22 23 26 30 28 29 30 36 41 57 61 62 66 74 80 84 85 86 89 89 91 95 90 81 84 93 86 87 82 71
18 18 21 24 24 24 25 26 26 27 28 29 30 27 25 25 27 27 25 32 41 48 56 66 71 71 74 75 78 81 83 87 91 96 103 100 93 92 94 86 90 86 80
15 17 19 21 23 25 27 29 30 31 32 33 35 36 37 37 34 28 26 30 37 46 56 68 78 81 80 78 78 79 84 87 90 94 95 103 105 95 97 94 92 94 91
16 19 21 24 26 29 30 33 34 35 36 36 36 37 39 40 41 40 42 42 44 46 47 50 58 69 82 85 85 86 86 86 83 86 91 102 106 101 97 99 94 101 93
19 22 24 26 29 31 32 34 36 37 39 40 41 41 43 44 44 44 44 45 45 48 51 55 59 63 67 71 70 73 79 81 81 83 81 81 91 98 99 98 100 102 100
21 25 30 34 37 40 41 43 43 45 46 48 49 51 50 51 50 50 50 51 52 53 51 49 56 54 50 67 76 72 72 77 77 78 87 84 82 83 85 91 101 106 104
32 38 41 44 46 48 48 49 52 53 54 55 55 55 55 55 56 57 56 56 57 56 55 59 67 70 73 75 71 64 62 68 77 80 80 80 80 81 83 86 89 98 103
40 43 46 47 48 50 50 51 51 52 52 53 54 55 56 56 56 57 58 59 59 60 60 59 59 61 62 61 63 66 67 64 64 64 68 72 75 79 79 83 86 91 93
42 44 45 46 46 46 48 49 50 50 51 51 51 50 51 53 54 56 57 58 59 61 61 62 63 64 69 71 70 69 71 74 76 75 74 76 76 77 79 80 81 84 85
Wind_Direction_850mb
235 237 239 240 242 246 247 244 240 242 243 242 243 245 247 246 247 245 245 243 245 245 256 255 252 252 251 250 248 253 240 234 231 237 240 238 239 235 229 229 226 236 257
234 235 237 240 240 241 243 242 242 240 238 241 244 245 247 246 250 248 252 246 244 242 252 252 252 249 249 249 245 245 239 237 232 234 235 233 234 233 228 227 228 240 251
226 229 232 235 239 240 241 244 247 243 239 239 240 241 243 244 248 250 247 248 248 245 246 254 255 249 247 247 247 240 240 232 231 231 234 232 230 228 225 225 226 236 249
215 218 224 229 233 236 239 242 247 249 248 244 243 244 245 248 246 248 250 243 245 240 246 253 248 248 250 251 242 243 236 232 229 228 231 231 229 224 225 226 227 234 243
207 213 218 225 231 237 242 247 252 254 255 252 249 248 246 246 245 241 245 237 236 239 246 244 237 244 250 247 244 238 233 229 230 229 228 227 225 221 221 223 228 234 241
224 226 230 236 239 245 247 248 249 249 250 251 249 248 246 246 247 244 237 240 237 247 249 251 247 247 242 245 241 233 231 236 234 231 227 228 225 222 219 224 230 235 241
233 235 238 238 237 238 239 241 243 246 249 250 251 253 252 252 246 248 247 238 245 250 252 255 252 251 249 245 236 230 230 230 229 233 233 229 223 222 224 228 229 235 244
241 245 243 244 245 245 246 249 253 257 259 261 263 260 255 258 251 249 253 251 255 253 255 255 257 258 254 244 234 232 231 231 230 229 225 221 222 223 230 228 230 234 242
245 245 244 246 251 256 260 263 263 264 263 261 256 246 245 244 248 254 254 253 256 257 256 254 256 256 250 243 237 235 233 232 229 227 225 224 224 235 235 232 234 237 243
246 253 258 260 259 257 256 254 254 255 254 251 251 252 253 255 253 254 256 259 260 261 262 256 254 251 248 243 240 238 236 235 234 230 226 223 231 249 240 234 234 236 244
251 256 259 262 263 263 261 259 257 255 251 249 253 256 259 260 261 262 265 266 265 264 262 258 255 251 245 243 242 241 240 238 235 229 226 229 244 253 239 234 234 238 242
238 248 259 266 269 267 264 262 259 258 258 256 254 254 256 260 265 266 267 267 267 266 263 259 254 251 249 247 246 241 237 233 231 230 230 233 252 256 241 236 236 239 249
134 131 133 139 182 268 275 269 263 261 260 262 262 263 264 264 264 266 269 268 265 263 260 256 252 252 253 250 249 245 242 238 235 233 231 241 270 254 244 240 240 237 252
110 108 98 84 63 42 18 357 334 312 299 288 282 280 274 268 270 273 274 272 271 267 262 255 251 250 252 253 248 247 246 243 240 240 236 245 256 250 244 248 244 238 248
93 86 73 57 45 37 17 6 352 326 307 296 288 279 282 282 281 271 270 272 274 274 270 263 255 250 248 248 245 245 248 245 242 240 237 246 248 248 246 253 243 242 244
72 61 49 46 31 23 15 1 354 348 339 325 317 307 299 289 284 273 271 271 267 262 260 258 256 252 249 251 250 252 253 252 249 241 239 247 249 247 251 250 242 243 243
56 49 39 35 29 22 19 12 13 4 354 342 327 309 306 303 294 287 283 282 276 266 262 262 259 257 256 256 255 255 256 259 255 244 241 248 253 248 248 250 245 244 241
40 30 24 18 13 6 3 359 352 346 344 342 330 324 312 301 297 290 284 282 270 257 263 267 267 267 265 263 262 260 262 261 257 256 250 257 253 254 251 248 245 244 241
58 45 33 22 13 7 3 357 351 347 342 336 330 328 319 309 300 293 285 274 273 274 271 273 277 279 277 276 274 273 270 265 261 261 256 256 256 264 256 248 247 245 246
46 30 13 5 355 348 344 342 341 338 335 332 330 327 323 320 316 308 298 290 281 277 277 277 279 283 287 288 288 285 280 276 272 264 258 256 263 260 261 249 245 243 250
7 355 350 344 340 338 338 335 334 330 326 323 322 320 317 313 311 306 304 301 296 292 288 285 286 285 285 286 287 287 288 286 285 281 276 266 264 266 269 254 244 244 250
350 345 340 336 333 329 325 323 321 320 319 316 315 313 311 309 306 301 294 287 286 291 294 293 291 291 290 290 290 289 289 288 290 288 287 285 278 272 270 261 252 249 250
335 330 327 325 323 321 320 318 316 314 311 310 309 308 307 304 302 300 297 293 288 281 274 275 276 276 283 287 288 291 290 288 290 293 289 285 283 281 276 269 261 250 248
320 318 318 316 314 312 311 309 309 309 309 308 308 307 307 306 305 303 301 297 293 289 284 276 273 273 271 270 273 277 283 287 286 286 287 287 284 284 279 272 266 259 252
312 312 312 312 311 311 311 310 310 310 310 309 309 309 308 308 306 305 303 301 297 292 288 285 284 283 282 279 275 275 275 275 275 275 277 278 277 277 276 274 268 261 251
308 308 308 308 308 307 307 306 307 308 308 308 308 310 311 311 311 310 309 306 303 301 298 295 292 289 287 286 285 282 278 277 277 275 274 274 274 272 270 268 265 260 254